This is the latest recevied weather packets stored in our database for station/object KC1TLF-15. If no packets are shown the sender has not sent any weather packets the latest 10 day(s).
| Time | Temp. | Humidity | Pressure | Rain* | Wind** | Luminosity | Snow |
|---|---|---|---|---|---|---|---|
| 1777076414 | 7.78° C | 52% | 1021.9 hPa | 0 mm | 0 m/s | 0 W/m² | - |
| 1777075814 | 7.78° C | 51% | 1021.8 hPa | 0 mm | 0 m/s | - | - |
| 1777075214 | 8.33° C | 48% | 1021.3 hPa | 0 mm | 0.89 m/s, 214° | - | - |
| 1777074614 | 8.89° C | 49% | 1020.9 hPa | 0 mm | 1.34 m/s, 107° | - | - |
| 1777074015 | 8.89° C | 48% | 1020.9 hPa | 0 mm | 0.89 m/s, 254° | - | - |
| 1777073411 | 9.44° C | 49% | 1020.8 hPa | 0 mm | 0 m/s | - | - |
| 1777072815 | 9.44° C | 50% | 1020.8 hPa | 0 mm | 0 m/s | - | - |
| 1777072213 | 10° C | 49% | 1020.1 hPa | 0 mm | 0.45 m/s, 257° | - | - |
| 1777071615 | 10° C | 49% | 1020.1 hPa | 0 mm | 0 m/s | - | - |
| 1777071015 | 10.56° C | 48% | 1020 hPa | 0 mm | 0.89 m/s, 311° | - | - |
| 1777070413 | 10.56° C | 47% | 1019.6 hPa | 0 mm | 0.45 m/s, 249° | - | - |
| 1777069813 | 11.11° C | 47% | 1019.6 hPa | 0 mm | 0.89 m/s, 83° | - | - |
| 1777069213 | 11.11° C | 46% | 1019.2 hPa | 0 mm | 0 m/s | - | - |
| 1777068613 | 11.67° C | 45% | 1019.2 hPa | 0 mm | 0.45 m/s, 315° | - | - |
| 1777068014 | 12.22° C | 42% | 1018.7 hPa | 0 mm | 2.24 m/s, 171° | - | - |
| 1777067415 | 13.89° C | 32% | 1018.7 hPa | 0 mm | 1.79 m/s, 79° | - | - |
| 1777066813 | 14.44° C | 35% | 1018.4 hPa | 0 mm | 0 m/s | 128 W/m² | - |
| 1777066215 | 13.89° C | 32% | 1018.6 hPa | 0 mm | 0.89 m/s, 57° | - | - |
| 1777065613 | 13.89° C | 32% | 1018.3 hPa | 0 mm | 0.89 m/s, 332° | - | - |
| 1777065015 | 14.44° C | 31% | 1018.1 hPa | 0 mm | 2.24 m/s, 331° | - | - |
| 1777064415 | 13.89° C | 33% | 1018.2 hPa | 0 mm | 0.45 m/s, 43° | - | - |
| 1777063814 | 13.89° C | 31% | 1018 hPa | 0 mm | 2.68 m/s, 99° | - | - |
| 1777063215 | 13.89° C | 31% | 1017.9 hPa | 0 mm | 1.34 m/s, 340° | 155 W/m² | - |
| 1777062614 | 13.89° C | 31% | 1018.1 hPa | 0 mm | 0.89 m/s, 329° | - | - |
| 1777062014 | 13.89° C | 33% | 1017.9 hPa | 0 mm | 0 m/s | - | - |
* Rain latest hour (hover to see other rain measurements)
** Current wind speed in m/s (hover to see current wind gust speed)